"Pseudo-MPEC" for A114pDc

Created 2024 Mar 1 18:22:03 UT using Find_Orb

Click here for an explanation of pseudo-MPECs

 
 Astrometry: 
     A114pDc* C2024 02 28[n_9t?AK(+O7-s\n#219Yj1q*5`.$Ih9qMSkFNqNYFfgtH5w[6:kW68
     A114pDc  C2024 02 28!eOkK7IN%bF,okRDb#clD]oY4PZ%D%Zd.%5EN$kd0`/b*rhb55,LW68
     A114pDc  C2024 02 28*@`4?XYTBgY22b*jSH9WbDOP`eljI2+]fJpy$8f8$R.BSVBFh^j=W68
     A114pDc  C2024 02 28i*6.wXc1;*61)n$J,\V`Ey9Uu`CZ*;I5QWfW5)C+gYpKMNu41QtVW68
     A114pDc  C2024 02 29*he(/Astrometry:2Jc!!tAredacted;2d%UIl4?qnl*Yx$i\FTNX09
     A114pDc  C2024 02 29cV;click3sphH8!2qV[=kT5a[k[3hereIJpforpY2xBC900xdyPMX09
     A114pDc |C2024 03 0101jU@%explanationB;aXN0(DZ;1Y^Trnp\F58ee0QVeq5'mPhKY807
     A114pDc |C2024 03 01R.#3IhlaBUmUV\mVG3fxCQIX2qcTBB`*ys.B?od^%1m[m`7;MWmp807
     A114pDc |C2024 03 01bqOtBl(dhhIgW/[LNsQ_ff-'WT4IKv@TJbF,'4u*Uka?Lgms,f9m807

Station data:
(807) Cerro Tololo Observatory, La Serena  (S30.169133 W70.805900)  Chile.
   Observer R. Holmes. 0.61-m f/6.5 astrograph + CCD.
(W68) ATLAS Chile, Rio Hurtado  (S30.471010 W70.764980)  Chile.  Observers L.
   Denneau, R. Siverd, J. Tonry, H. Weiland. Measurers L. Denneau, N.
   Erasmus, A. Fitzsimmons, A. Lawrence, J. Robinson, R. Siverd, J. Tonry, H.
   Weiland. 0.5-m reflector + CCD.
(X09) Deep Random Survey, Rio Hurtado  (S30.526310 W70.853300)  Chile.

Orbital elements:  A114pDc
   Perihelion 2024 May 14.69860 +/- 0.383 TT = 16:45:58 (JD 2460445.19860)
Epoch 2024 Mar  1.0 TT = JDT 2460370.5   Earth MOID: 0.0382   Ve: 0.0719
M 269.05950733 +/- 0.6              (J2000 ecliptic)             AutoNEOCP
n   1.21743243 +/- 0.00286          Peri.  123.39683 +/- 0.21
a   0.86863929 +/- 0.00136          Node   172.15521 +/- 0.028
e   0.3849813 +/- 0.00303           Incl.   23.15594 +/- 0.26
P   0.81/295.70d           H 20.20  G  0.15   U  8.8
q 0.53422937 +/- 0.0018    Q 1.20304921 +/- 0.00451
From 9 observations 2024 Feb. 28-Mar. 1 (47.4 hr); mean residual 0".21
Residuals in arcseconds: 
240228 W68  .29-  .21+    240228 W68  .05-  .03-    240301 807  .00   .27-    
240228 W68  .26+  .15-    240229 X09  .27-  .20+    240301 807  .34-  .19+    
240228 W68  .08+  .03-    240229 X09  .27+  .21-    240301 807  .33+  .08+    

Ephemerides (geocentric):
Date (UTC) HH   RA             Dec           delta  r     elong  mag " sig PA
---- --------  ------------   ------------  ------ ------ -----  --- --------
2024 03 01 18  16 46 25.003   -55 33 57.78  .08846 .98666  84.6 18.1 1.99  73
2024 03 01 19  16 47 52.876   -55 30 13.19  .08821 .98641  84.5 18.1 2.09  73
2024 03 01 20  16 49 20.967   -55 26 23.37  .08796 .98617  84.3 18.1 2.21  72
2024 03 01 21  16 50 49.272   -55 22 28.27  .08771 .98592  84.1 18.1 2.32  72
2024 03 01 22  16 52 17.783   -55 18 27.85  .08747 .98568  83.9 18.1 2.44  71
2024 03 01 23  16 53 46.495   -55 14 22.06  .08722 .98544  83.8 18.1 2.56  71
2024 03 02 00  16 55 15.400   -55 10 10.84  .08698 .98519  83.6 18.1 2.69  70
2024 03 02 01  16 56 44.493   -55 05 54.16  .08673 .98495  83.4 18.1 2.82  70
2024 03 02 02  16 58 13.766   -55 01 31.96  .08649 .98470  83.3 18.1 2.96  70
2024 03 02 03  16 59 43.212   -54 57 04.19  .08625 .98446  83.1 18.1 3.10  69
2024 03 02 04  17 01 12.825   -54 52 30.80  .08601 .98421  82.9 18.1 3.24  69
2024 03 02 05  17 02 42.598   -54 47 51.76  .08577 .98397  82.7 18.1 3.39  69
2024 03 02 06  17 04 12.524   -54 43 07.02  .08553 .98372  82.6 18.1 3.54  68
2024 03 02 07  17 05 42.595   -54 38 16.53  .08530 .98348  82.4 18.1 3.69  68
2024 03 02 08  17 07 12.805   -54 33 20.24  .08507 .98323  82.2 18.1 3.85  67
2024 03 02 09  17 08 43.146   -54 28 18.11  .08483 .98298  82.0 18.1 4.02  67
2024 03 02 10  17 10 13.611   -54 23 10.11  .08460 .98274  81.8 18.1 4.19  67
2024 03 02 11  17 11 44.192   -54 17 56.18  .08437 .98249  81.6 18.1 4.36  66
2024 03 02 12  17 13 14.882   -54 12 36.29  .08414 .98225  81.5 18.1 4.54  66
2024 03 02 13  17 14 45.674   -54 07 10.39  .08392 .98200  81.3 18.1 4.73  66
2024 03 02 14  17 16 16.560   -54 01 38.44  .08369 .98175  81.1 18.1 4.91  65
2024 03 02 15  17 17 47.532   -53 56 00.41  .08347 .98151  80.9 18.1 5.11  65
2024 03 02 16  17 19 18.583   -53 50 16.26  .08324 .98126  80.7 18.1 5.30  65
2024 03 02 17  17 20 49.705   -53 44 25.94  .08302 .98101  80.5 18.1 5.51  64
2024 03 02 18  17 22 20.891   -53 38 29.43  .08280 .98077  80.3 18.1 5.71  64
2024 03 02 19  17 23 52.132   -53 32 26.68  .08258 .98052  80.1 18.1 5.93  64
2024 03 02 20  17 25 23.421   -53 26 17.66  .08237 .98027  79.9 18.1 6.14  63
2024 03 02 21  17 26 54.750   -53 20 02.34  .08215 .98002  79.8 18.1 6.37  63
2024 03 02 22  17 28 26.111   -53 13 40.69  .08194 .97978  79.6 18.2 6.59  63
2024 03 02 23  17 29 57.496   -53 07 12.67  .08173 .97953  79.4 18.2 6.83  62
2024 03 03 00  17 31 28.898   -53 00 38.25  .08151 .97928  79.2 18.2 7.06  62
2024 03 03 01  17 33 00.309   -52 53 57.40  .08131 .97903  79.0 18.2 7.31  62
2024 03 03 02  17 34 31.720   -52 47 10.09  .08110 .97879  78.8 18.2 7.55  61
2024 03 03 03  17 36 03.125   -52 40 16.31  .08089 .97854  78.6 18.2 7.81  61
2024 03 03 04  17 37 34.514   -52 33 16.01  .08069 .97829  78.4 18.2 8.07  61
2024 03 03 05  17 39 05.880   -52 26 09.18  .08048 .97804  78.2 18.2 8.33  61
2024 03 03 06  17 40 37.216   -52 18 55.79  .08028 .97779  77.9 18.2 8.60  60
2024 03 03 07  17 42 08.513   -52 11 35.82  .08008 .97754  77.7 18.2 8.88  60
2024 03 03 08  17 43 39.764   -52 04 09.24  .07989 .97729  77.5 18.2 9.16  60
2024 03 03 09  17 45 10.961   -51 56 36.04  .07969 .97705  77.3 18.2 9.44  59
2024 03 03 10  17 46 42.096   -51 48 56.21  .07950 .97680  77.1 18.2 9.73  59
2024 03 03 11  17 48 13.162   -51 41 09.71  .07930 .97655  76.9 18.2 10.0  59
2024 03 03 12  17 49 44.150   -51 33 16.54  .07911 .97630  76.7 18.2 10.3  58
2024 03 03 13  17 51 15.053   -51 25 16.68  .07892 .97605  76.5 18.2 10.6  58
2024 03 03 14  17 52 45.863   -51 17 10.11  .07873 .97580  76.3 18.2 11.0  58
2024 03 03 15  17 54 16.574   -51 08 56.84  .07855 .97555  76.1 18.2 11.3  58
2024 03 03 16  17 55 47.177   -51 00 36.84  .07836 .97530  75.8 18.2 11.6  57
2024 03 03 17  17 57 17.665   -50 52 10.10  .07818 .97505  75.6 18.2 11.9  57